Panama City, FL

4:15 PM CDT on April 24, 2018 (GMT -0500)
Northwest Florida Beaches International

Weather History for KECP - November, 2011

Change the Weather History Date:

Wednesday, November 16, 2011

  Actual Average Record
Temperature  
Mean Temperature 76 °F -  
Max Temperature 82 °F - 91 °F (2014)
Min Temperature 68 °F - 40 °F (2017)
Degree Days  
Heating Degree Days 0    
Cooling Degree Days 10    
Growing Degree Days 26 (Base 50)    
Moisture  
Dew Point 72 °F    
Average Humidity 94    
Maximum Humidity 100    
Minimum Humidity 74    
Precipitation  
Precipitation 0.21 in - 0.21 in (2010)
Month to date precipitation  
Year to date precipitation  
Sea Level Pressure  
Sea Level Pressure 29.92 in    
Wind  
Wind Speed 10 mph (SSE)    
Max Wind Speed 22 mph    
Max Gust Speed 30 mph    
Visibility 5 miles    
Events Rain    
T = Trace of Precipitation, MM = Missing Value Source: NWS Daily Summary

Daily Weather History Graph

Daily Weather History Graph

Search for Another Location

Airport or City:

Astronomy

Nov. 16, 2011 Rise Set
Actual Time 7:09 AM EST 5:46 PM EST
Civil Twilight 6:44 AM EST 6:11 PM EST
Nautical Twilight 6:15 AM EST 6:40 PM EST
Astronomical Twilight 5:46 AM EST 7:09 PM EST
Moon 10:55 PM EST (11/16) 11:47 AM EST (11/16)
Length of Visible Light 11h 27m
Length of Day
10h 36m
Waning Gibbous, 70% of the Moon is Illuminated
Nov 16
Waning Gibbous
Nov 18
Last Quarter
Nov 25
New
Dec 2
First Quarter
Dec 10
Full

Hourly Weather History & Observations

Time (EST) Temp. Heat Index Dew Point Humidity Pressure Visibility Wind Dir Wind Speed Gust Speed Precip Events Conditions
12:53 AM 73.0 °F - 73.0 °F 100% 29.98 in 3.0 mi SSE 13.8 mph - N/A   Overcast
1:02 AM 73.4 °F - 73.4 °F 100% 29.94 in 2.5 mi SE 12.7 mph - N/A   Overcast
1:19 AM 73.4 °F - 73.4 °F 100% 29.94 in 3.0 mi SE 11.5 mph - N/A   Overcast
1:53 AM 73.0 °F - 72.0 °F 96% 29.96 in 4.0 mi SE 15.0 mph - N/A   Overcast
2:16 AM 73.4 °F - 71.6 °F 94% 29.93 in 8.0 mi SSE 9.2 mph - N/A   Overcast
2:29 AM 73.4 °F - 71.6 °F 94% 29.92 in 6.0 mi SE 10.4 mph - N/A   Overcast
2:51 AM 71.6 °F - 71.6 °F 100% 29.92 in 8.0 mi SSE 8.1 mph - N/A   Mostly Cloudy
2:53 AM 72.0 °F - 72.0 °F 100% 29.96 in 8.0 mi SSE 5.8 mph - N/A   Overcast
3:10 AM 71.6 °F - 71.6 °F 100% 29.92 in 8.0 mi SSE 9.2 mph - N/A   Mostly Cloudy
3:24 AM 71.6 °F - 71.6 °F 100% 29.92 in 6.0 mi SSE 6.9 mph - N/A   Mostly Cloudy
3:39 AM 71.6 °F - 71.6 °F 100% 29.92 in 4.0 mi SSE 6.9 mph - N/A   Mostly Cloudy
3:49 AM 71.6 °F - 71.6 °F 100% 29.91 in 1.8 mi SSE 6.9 mph - N/A   Overcast
3:53 AM 72.0 °F - 71.1 °F 97% 29.95 in 1.0 mi SSE 8.1 mph - N/A   Overcast
4:01 AM 71.6 °F - 71.6 °F 100% 29.91 in 0.8 mi SSE 8.1 mph - N/A   Overcast
4:34 AM 71.6 °F - 71.6 °F 100% 29.90 in 1.0 mi SSE 8.1 mph - N/A   Overcast
4:53 AM 71.1 °F - 71.1 °F 100% 29.94 in 1.0 mi SE 8.1 mph - N/A   Overcast
5:00 AM 71.6 °F - 71.6 °F 100% 29.91 in 0.8 mi SSE 6.9 mph - N/A   Overcast
5:23 AM 71.6 °F - 71.6 °F 100% 29.90 in 0.8 mi SSE 5.8 mph - N/A   Overcast
5:32 AM 71.6 °F - 71.6 °F 100% 29.91 in 0.8 mi SE 4.6 mph - N/A   Overcast
5:46 AM 69.8 °F - 69.8 °F 100% 29.91 in 0.5 mi SSE 4.6 mph - N/A   Overcast
5:53 AM 70.0 °F - 70.0 °F 100% 29.93 in 0.5 mi ESE 6.9 mph - N/A   Overcast
6:04 AM 69.8 °F - 69.8 °F 100% 29.90 in 2.0 mi SE 5.8 mph - N/A   Mostly Cloudy
6:10 AM 69.8 °F - 69.8 °F 100% 29.90 in 2.5 mi SE 8.1 mph - N/A   Overcast
6:20 AM 69.8 °F - 69.8 °F 100% 29.91 in 2.5 mi South 3.5 mph - N/A   Overcast
6:34 AM 71.6 °F - 71.6 °F 100% 29.91 in 1.0 mi SE 4.6 mph - N/A   Overcast
6:53 AM 71.1 °F - 71.1 °F 100% 29.94 in 1.0 mi SE 5.8 mph - N/A   Mostly Cloudy
7:04 AM 71.6 °F - 71.6 °F 100% 29.91 in 1.0 mi SE 8.1 mph - N/A   Mostly Cloudy
7:12 AM 71.6 °F - 71.6 °F 100% 29.91 in 0.8 mi SE 8.1 mph - N/A   Mostly Cloudy
7:38 AM 71.6 °F - 71.6 °F 100% 29.92 in 0.8 mi SE 5.8 mph - N/A   Mostly Cloudy
7:53 AM 71.1 °F - 71.1 °F 100% 29.96 in 0.8 mi SSE 5.8 mph - N/A   Mostly Cloudy
8:53 AM 73.0 °F - 73.0 °F 100% 29.97 in 2.0 mi SE 6.9 mph - N/A   Mostly Cloudy
9:53 AM 75.9 °F - 73.9 °F 94% 29.98 in 2.0 mi SSE 10.4 mph - N/A   Overcast
10:00 AM 75.2 °F - 75.2 °F 100% 29.94 in 7.0 mi SSE 11.5 mph 20.7 mph N/A   Overcast
10:53 AM 78.8 °F - 73.4 °F 83% 29.94 in 8.0 mi South 17.3 mph 24.2 mph N/A   Mostly Cloudy
11:53 AM 81.0 °F 86.2 °F 73.9 °F 79% 29.96 in 9.0 mi South 18.4 mph 27.6 mph N/A   Mostly Cloudy
12:30 PM 80.6 °F 85.4 °F 73.4 °F 79% 29.91 in 9.0 mi South 15.0 mph 24.2 mph N/A   Mostly Cloudy
12:46 PM 80.6 °F 85.4 °F 73.4 °F 79% 29.90 in 9.0 mi South 21.9 mph 28.8 mph N/A   Mostly Cloudy
12:53 PM 81.0 °F 86.2 °F 73.9 °F 79% 29.94 in 9.0 mi South 17.3 mph 28.8 mph N/A   Mostly Cloudy
1:08 PM 82.4 °F 88.2 °F 73.4 °F 74% 29.89 in 10.0 mi South 19.6 mph 27.6 mph N/A   Scattered Clouds
1:15 PM 80.6 °F 85.4 °F 73.4 °F 79% 29.89 in 10.0 mi South 19.6 mph 26.5 mph N/A   Mostly Cloudy
1:23 PM 82.4 °F 88.2 °F 73.4 °F 74% 29.89 in 10.0 mi South 16.1 mph 26.5 mph N/A   Mostly Cloudy
1:53 PM 81.0 °F 86.2 °F 73.9 °F 79% 29.91 in 10.0 mi South 18.4 mph 26.5 mph N/A   Mostly Cloudy
2:00 PM 80.6 °F 85.4 °F 73.4 °F 79% 29.88 in 10.0 mi South 18.4 mph 25.3 mph N/A   Mostly Cloudy
2:20 PM 78.8 °F - 73.4 °F 83% 29.87 in 9.0 mi South 16.1 mph 27.6 mph N/A   Mostly Cloudy
2:53 PM 78.1 °F - 73.9 °F 87% 29.89 in 8.0 mi South 17.3 mph 24.2 mph N/A   Overcast
3:05 PM 77.0 °F - 73.4 °F 89% 29.86 in 7.0 mi South 17.3 mph - N/A   Overcast
3:32 PM 73.4 °F - 71.6 °F 94% 29.86 in 1.0 mi WSW 13.8 mph - 0.10 in Rain Heavy Rain
3:35 PM 71.6 °F - 69.8 °F 94% 29.84 in 1.0 mi SW 9.2 mph - 0.14 in Rain Heavy Rain
3:53 PM 73.4 °F - 71.6 °F 94% 29.85 in 1.0 mi WSW 19.6 mph 26.5 mph N/A Rain Heavy Rain
4:18 PM 73.4 °F - 71.6 °F 94% 29.85 in 3.0 mi SW 15.0 mph 29.9 mph 0.21 in Rain Light Rain
4:33 PM 73.4 °F - 71.6 °F 94% 29.86 in 10.0 mi SW 10.4 mph - 0.21 in   Mostly Cloudy
4:53 PM 73.0 °F - 71.1 °F 93% 29.89 in 8.0 mi SSW 6.9 mph - 0.21 in   Partly Cloudy
5:53 PM 72.0 °F - 71.1 °F 97% 29.91 in 6.0 mi South 9.2 mph - N/A   Clear
6:53 PM 71.1 °F - 70.0 °F 96% 29.92 in 6.0 mi South 6.9 mph - N/A   Clear
7:53 PM 70.0 °F - 70.0 °F 100% 29.92 in 6.0 mi SSW 5.8 mph - N/A   Clear
8:53 PM 70.0 °F - 68.0 °F 93% 29.94 in 8.0 mi South 6.9 mph - N/A   Clear
9:53 PM 70.0 °F - 68.0 °F 93% 29.94 in 10.0 mi Calm Calm - N/A   Clear
10:53 PM 69.1 °F - 68.0 °F 96% 29.95 in 10.0 mi SSW 3.5 mph - N/A   Clear
11:53 PM 68.0 °F - 66.9 °F 96% 29.96 in 10.0 mi SW 3.5 mph - N/A   Clear